Tracking 22458 objects as of 3-Mar-2021
HD Live streaming from Space Station
objects crossing your sky now

SL-12 R/B(2)

Track SL-12 R/B(2) now!


NORAD ID: 26397
Int'l Code: 2000-036D
Perigee: 35,733.0 km
Apogee: 35,925.6 km
Inclination: 12.9 °
Period: 1,437.9 minutes
Semi major axis: 42200 km
RCS: 2.5119 m2 (large)
Launch date: July 4, 2000
Source: Commonwealth of Independent States (former USSR) (CIS)
Launch site: TYURATAM MISSILE AND SPACE COMPLEX (TTMTR)

Note: This is a ROCKET BODY
aabbcc
Your satellite tracking list
Your tracking list is empty




NASA's NSSDC Master Catalog

Two Line Element Set (TLE):
1 26397U 00036D   21061.60192098 -.00000020  00000-0  00000+0 0  9993
2 26397  12.8989  21.3259 0022827  25.2199 213.4897  1.00145052 75584
Source of the keplerian elements: AFSPC